Location: Bois de la Silve
(44.4667°N, 6.7833°E)
Time: 00:37:16
(UTC+00:00)

USA 238 DEB - Visible Passes

Search period start: 24 October 2020 00:00
Search period end: 03 November 2020 00:00
Orbit: 1006 x 1206 km, 63.4° (Epoch: 15 October)

Date Brightness Start Highest point End Pass type
(mag) Time Alt. Az. Time Alt. Az. Time Alt. Az.
24 Oct 5.5 01:57:47 22° E 01:57:47 22° E 02:02:03 10° ENE visible
24 Oct 3.5 03:45:17 49° WSW 03:47:11 76° NW 03:54:07 10° NE visible
25 Oct 6.2 01:15:00 11° E 01:15:00 11° E 01:15:39 10° ENE visible
25 Oct 3.7 03:02:28 74° ESE 03:02:28 74° ESE 03:09:15 10° NE visible
25 Oct 4.5 04:49:57 18° W 04:53:59 31° NW 05:00:07 10° NNE visible
26 Oct 4.8 02:19:35 39° ENE 02:19:35 39° ENE 02:24:15 10° NE visible
26 Oct 4.1 04:07:03 36° WNW 04:08:48 43° NW 04:15:22 10° NNE visible
27 Oct 5.7 01:36:37 20° ENE 01:36:37 20° ENE 01:39:00 10° NE visible
27 Oct 3.7 03:24:05 60° NNW 03:24:05 60° NNW 03:30:36 10° NNE visible
27 Oct 5.1 05:11:33 11° WNW 05:16:12 22° NNW 05:21:26 10° NNE visible
28 Oct 4.4 02:41:03 47° NE 02:41:03 47° NE 02:45:48 10° NE visible
28 Oct 4.7 04:28:30 23° WNW 04:30:47 27° NNW 04:36:36 10° NNE visible
29 Oct 5.4 01:57:57 27° NE 01:57:57 27° NE 02:00:53 10° NE visible
29 Oct 4.4 03:45:25 35° NW 03:45:30 35° NW 03:51:49 10° NNE visible
29 Oct 5.4 05:34:25 10° NW 05:38:43 17° N 05:43:09 10° NNE visible
30 Oct 6.1 01:14:49 14° NE 01:14:49 14° NE 01:15:48 10° NE visible
30 Oct 4.5 03:02:16 39° N 03:02:16 39° N 03:07:05 10° NNE visible
30 Oct 5.2 04:49:43 14° NW 04:53:08 19° NNW 04:58:01 10° NNE visible
31 Oct 5.2 02:19:05 29° NNE 02:19:05 29° NNE 02:22:18 10° NE visible
31 Oct 4.9 04:06:33 23° NW 04:07:38 23° NNW 04:13:06 10° NNE visible
01 Nov 5.9 01:35:53 18° NE 01:35:53 18° NE 01:37:28 10° NE visible
01 Nov 4.8 03:23:20 29° NNW 03:23:20 29° NNW 03:28:18 10° NNE visible
01 Nov 5.5 05:11:34 10° NW 05:15:43 16° N 05:19:59 10° NNE visible
02 Nov 5.2 02:40:06 27° N 02:40:06 27° N 02:43:32 10° NNE visible
02 Nov 5.3 04:27:32 15° NW 04:30:05 18° NNW 04:34:41 10° NNE visible
